Time,TemperatureF,DewpointF,PressureIn,WindDirection,WindDirectionDegrees,WindSpeedMPH,WindSpeedGustMPH,Humidity,HourlyPrecipIn,Conditions,Clouds,dailyrainin,SoftwareType,DateUTC
2014-02-25 00:08:00,60.6,56.0,30.05,South,179,0.0,1.0,84,0.00,,,0.00,weatherlink.com 1.10,2014-02-25 06:08:00,
2014-02-25 00:23:00,60.6,56.0,30.05,South,179,0.0,0.0,84,0.00,,,0.00,weatherlink.com 1.10,2014-02-25 06:23:00,
2014-02-25 00:38:00,60.6,56.0,30.04,South,179,0.0,1.0,84,0.00,,,0.00,weatherlink.com 1.10,2014-02-25 06:38:00,
2014-02-25 00:53:00,60.6,56.0,30.02,South,179,0.0,1.0,85,0.00,,,0.00,weatherlink.com 1.10,2014-02-25 06:53:00,
2014-02-25 01:08:00,60.7,56.0,30.02,South,179,0.0,0.0,85,0.00,,,0.00,weatherlink.com 1.10,2014-02-25 07:08:00,
2014-02-25 01:23:00,60.8,57.0,30.02,South,179,0.0,1.0,86,0.00,,,0.00,weatherlink.com 1.10,2014-02-25 07:23:00,
2014-02-25 01:38:00,60.8,57.0,30.02,South,177,0.0,2.0,86,0.00,,,0.00,weatherlink.com 1.10,2014-02-25 07:38:00,
2014-02-25 01:53:00,60.9,57.0,30.02,South,177,0.0,1.0,87,0.00,,,0.00,weatherlink.com 1.10,2014-02-25 07:53:00,
2014-02-25 02:08:00,60.9,57.0,30.02,South,177,0.0,2.0,87,0.00,,,0.00,weatherlink.com 1.10,2014-02-25 08:08:00,
2014-02-25 02:23:00,60.9,57.0,30.02,South,178,0.0,0.0,87,0.00,,,0.00,weatherlink.com 1.10,2014-02-25 08:23:00,
2014-02-25 02:38:00,61.0,57.0,30.02,South,178,0.0,0.0,87,0.00,,,0.00,weatherlink.com 1.10,2014-02-25 08:38:00,
2014-02-25 02:53:00,61.0,57.0,30.02,South,178,0.0,0.0,87,0.00,,,0.00,weatherlink.com 1.10,2014-02-25 08:53:00,
2014-02-25 03:08:00,60.8,57.0,30.02,South,178,0.0,0.0,87,0.00,,,0.00,weatherlink.com 1.10,2014-02-25 09:08:00,
2014-02-25 03:24:00,60.8,57.0,30.02,South,178,0.0,0.0,87,0.00,,,0.00,weatherlink.com 1.10,2014-02-25 09:24:00,
2014-02-25 03:39:00,60.7,57.0,30.02,South,178,0.0,0.0,87,0.00,,,0.00,weatherlink.com 1.10,2014-02-25 09:39:00,
2014-02-25 03:54:00,60.5,57.0,30.02,South,178,0.0,0.0,87,0.00,,,0.00,weatherlink.com 1.10,2014-02-25 09:54:00,
2014-02-25 04:12:00,60.5,57.0,30.02,South,178,0.0,0.0,87,0.00,,,0.00,weatherlink.com 1.10,2014-02-25 10:12:00,
2014-02-25 04:24:00,60.4,57.0,30.01,South,177,0.0,0.0,87,0.00,,,0.00,weatherlink.com 1.10,2014-02-25 10:24:00,
2014-02-25 04:39:00,60.3,57.0,30.02,South,177,0.0,2.0,87,0.00,,,0.00,weatherlink.com 1.10,2014-02-25 10:39:00,
2014-02-25 04:54:00,60.4,57.0,30.02,South,178,0.0,0.0,87,0.00,,,0.00,weatherlink.com 1.10,2014-02-25 10:54:00,
2014-02-25 05:09:00,60.4,57.0,30.02,South,177,0.0,0.0,87,0.00,,,0.00,weatherlink.com 1.10,2014-02-25 11:09:00,
2014-02-25 05:24:00,60.4,57.0,30.02,South,178,0.0,0.0,87,0.00,,,0.00,weatherlink.com 1.10,2014-02-25 11:24:00,
2014-02-25 05:39:00,60.4,57.0,30.02,South,178,0.0,0.0,87,0.00,,,0.00,weatherlink.com 1.10,2014-02-25 11:39:00,
2014-02-25 05:54:00,60.3,57.0,30.03,South,178,0.0,0.0,87,0.00,,,0.00,weatherlink.com 1.10,2014-02-25 11:54:00,
2014-02-25 06:09:00,60.3,57.0,30.03,South,177,0.0,0.0,87,0.00,,,0.00,weatherlink.com 1.10,2014-02-25 12:09:00,
2014-02-25 06:24:00,60.3,57.0,30.04,South,176,0.0,2.0,87,0.00,,,0.00,weatherlink.com 1.10,2014-02-25 12:24:00,
2014-02-25 06:39:00,60.1,56.0,30.03,South,180,0.0,3.0,87,0.00,,,0.00,weatherlink.com 1.10,2014-02-25 12:39:00,
2014-02-25 06:54:00,60.0,56.0,30.04,South,180,0.0,0.0,87,0.00,,,0.00,weatherlink.com 1.10,2014-02-25 12:54:00,
2014-02-25 07:09:00,60.0,56.0,30.05,WSW,242,0.0,2.0,87,0.00,,,0.00,weatherlink.com 1.10,2014-02-25 13:09:00,
2014-02-25 07:24:00,60.0,56.0,30.05,WSW,242,0.0,0.0,87,0.00,,,0.00,weatherlink.com 1.10,2014-02-25 13:24:00,
2014-02-25 07:39:00,59.9,56.0,30.05,WSW,242,0.0,1.0,87,0.00,,,0.00,weatherlink.com 1.10,2014-02-25 13:39:00,
2014-02-25 07:54:00,59.9,56.0,30.06,WSW,242,0.0,0.0,87,0.00,,,0.00,weatherlink.com 1.10,2014-02-25 13:54:00,
2014-02-25 08:09:00,59.6,56.0,30.06,WNW,294,0.0,5.0,87,0.00,,,0.00,weatherlink.com 1.10,2014-02-25 14:09:00,
2014-02-25 08:24:00,59.0,55.0,30.07,WSW,254,3.0,4.0,87,0.00,,,0.00,weatherlink.com 1.10,2014-02-25 14:24:00,
2014-02-25 08:39:00,58.1,54.0,30.07,West,280,0.0,2.0,87,0.00,,,0.00,weatherlink.com 1.10,2014-02-25 14:39:00,
2014-02-25 08:54:00,57.4,54.0,30.08,NW,318,0.0,4.0,87,0.00,,,0.00,weatherlink.com 1.10,2014-02-25 14:54:00,
2014-02-25 09:09:00,56.8,53.0,30.08,WSW,254,0.0,4.0,87,0.00,,,0.00,weatherlink.com 1.10,2014-02-25 15:09:00,
2014-02-25 09:24:00,56.7,53.0,30.09,WSW,254,0.0,2.0,87,0.01,,,0.01,weatherlink.com 1.10,2014-02-25 15:24:00,
2014-02-25 09:39:00,56.5,53.0,30.09,WSW,254,0.0,0.0,87,0.02,,,0.02,weatherlink.com 1.10,2014-02-25 15:39:00,
2014-02-25 09:54:00,56.3,53.0,30.09,South,171,0.0,0.0,87,0.02,,,0.02,weatherlink.com 1.10,2014-02-25 15:54:00,
2014-02-25 10:09:00,56.0,52.0,30.09,West,276,0.0,5.0,87,0.03,,,0.03,weatherlink.com 1.10,2014-02-25 16:09:00,
2014-02-25 10:25:00,55.7,52.0,30.09,SSE,152,0.0,1.0,87,0.02,,,0.03,weatherlink.com 1.10,2014-02-25 16:25:00,
2014-02-25 10:39:00,55.8,52.0,30.09,WSW,258,0.0,2.0,87,0.01,,,0.03,weatherlink.com 1.10,2014-02-25 16:39:00,
2014-02-25 10:54:00,55.5,52.0,30.09,NW,326,0.0,4.0,87,0.01,,,0.03,weatherlink.com 1.10,2014-02-25 16:54:00,
2014-02-25 11:09:00,55.6,52.0,30.09,WSW,258,0.0,1.0,87,0.00,,,0.03,weatherlink.com 1.10,2014-02-25 17:09:00,
2014-02-25 11:24:00,55.5,52.0,30.09,NNW,327,0.0,5.0,87,0.00,,,0.03,weatherlink.com 1.10,2014-02-25 17:24:00,
2014-02-25 11:39:00,55.4,52.0,30.09,WNW,303,0.0,1.0,87,0.00,,,0.03,weatherlink.com 1.10,2014-02-25 17:39:00,
2014-02-25 11:54:00,55.2,51.0,30.08,SSW,204,0.0,3.0,87,0.00,,,0.03,weatherlink.com 1.10,2014-02-25 17:54:00,
2014-02-25 12:09:00,54.8,51.0,30.07,SW,216,0.0,3.0,87,0.00,,,0.03,weatherlink.com 1.10,2014-02-25 18:09:00,
2014-02-25 12:24:00,55.1,51.0,30.07,ESE,110,0.0,2.0,87,0.00,,,0.03,weatherlink.com 1.10,2014-02-25 18:24:00,
2014-02-25 12:39:00,55.0,51.0,30.05,SSE,158,0.0,4.0,87,0.00,,,0.03,weatherlink.com 1.10,2014-02-25 18:39:00,
2014-02-25 12:55:00,54.9,51.0,30.04,South,183,0.0,1.0,87,0.00,,,0.03,weatherlink.com 1.10,2014-02-25 18:55:00,
2014-02-25 13:09:00,54.9,51.0,30.03,South,183,0.0,0.0,87,0.00,,,0.03,weatherlink.com 1.10,2014-02-25 19:09:00,
2014-02-25 13:24:00,55.2,51.0,30.01,South,183,0.0,2.0,87,0.00,,,0.03,weatherlink.com 1.10,2014-02-25 19:24:00,
2014-02-25 13:39:00,55.2,51.0,30.01,South,191,0.0,2.0,87,0.00,,,0.03,weatherlink.com 1.10,2014-02-25 19:39:00,
2014-02-25 13:54:00,55.2,51.0,30.00,SSW,194,0.0,1.0,87,0.00,,,0.03,weatherlink.com 1.10,2014-02-25 19:54:00,
2014-02-25 14:09:00,54.8,51.0,30.00,WNW,283,0.0,4.0,87,0.00,,,0.03,weatherlink.com 1.10,2014-02-25 20:09:00,
2014-02-25 14:24:00,54.6,51.0,29.99,WSW,242,0.0,5.0,87,0.00,,,0.03,weatherlink.com 1.10,2014-02-25 20:24:00,
2014-02-25 14:39:00,55.0,51.0,29.98,WSW,246,0.0,0.0,87,0.00,,,0.03,weatherlink.com 1.10,2014-02-25 20:39:00,
2014-02-25 14:54:00,54.8,51.0,29.98,South,181,0.0,3.0,87,0.00,,,0.03,weatherlink.com 1.10,2014-02-25 20:54:00,
2014-02-25 15:09:00,54.2,51.0,29.98,WNW,291,0.0,4.0,87,0.00,,,0.03,weatherlink.com 1.10,2014-02-25 21:09:00,
2014-02-25 15:24:00,54.3,51.0,29.98,WNW,291,0.0,1.0,87,0.00,,,0.03,weatherlink.com 1.10,2014-02-25 21:24:00,
2014-02-25 15:39:00,54.2,51.0,29.98,West,268,0.0,3.0,87,0.00,,,0.03,weatherlink.com 1.10,2014-02-25 21:39:00,
2014-02-25 15:55:00,54.3,51.0,29.98,South,171,0.0,4.0,87,0.00,,,0.03,weatherlink.com 1.10,2014-02-25 21:55:00,
2014-02-25 16:10:00,54.3,51.0,29.97,South,178,0.0,1.0,87,0.00,,,0.03,weatherlink.com 1.10,2014-02-25 22:10:00,
2014-02-25 16:25:00,54.1,50.0,29.98,WSW,245,1.0,4.0,87,0.00,,,0.03,weatherlink.com 1.10,2014-02-25 22:25:00,
2014-02-25 16:40:00,54.0,50.0,29.98,South,169,0.0,4.0,87,0.00,,,0.03,weatherlink.com 1.10,2014-02-25 22:40:00,
2014-02-25 16:55:00,54.0,50.0,29.98,South,171,0.0,1.0,87,0.00,,,0.03,weatherlink.com 1.10,2014-02-25 22:55:00,
2014-02-25 17:10:00,54.0,51.0,29.97,South,171,0.0,0.0,88,0.00,,,0.03,weatherlink.com 1.10,2014-02-25 23:10:00,
2014-02-25 17:25:00,53.8,50.0,29.97,South,171,0.0,1.0,88,0.01,,,0.04,weatherlink.com 1.10,2014-02-25 23:25:00,
2014-02-25 17:41:00,53.6,50.0,29.97,South,171,0.0,1.0,88,0.01,,,0.04,weatherlink.com 1.10,2014-02-25 23:41:00,
2014-02-25 17:55:00,53.3,50.0,29.97,South,171,0.0,1.0,88,0.01,,,0.04,weatherlink.com 1.10,2014-02-25 23:55:00,
2014-02-25 18:10:00,53.0,50.0,29.98,South,178,0.0,3.0,88,0.01,,,0.04,weatherlink.com 1.10,2014-02-26 00:10:00,
2014-02-25 18:25:00,53.0,49.0,29.97,South,178,0.0,0.0,87,0.00,,,0.04,weatherlink.com 1.10,2014-02-26 00:25:00,
2014-02-25 18:40:00,52.7,49.0,29.98,South,178,0.0,1.0,87,0.00,,,0.04,weatherlink.com 1.10,2014-02-26 00:40:00,
2014-02-25 18:55:00,52.6,49.0,29.98,WSW,242,0.0,3.0,87,0.00,,,0.04,weatherlink.com 1.10,2014-02-26 00:55:00,
2014-02-25 19:10:00,52.5,49.0,29.99,WSW,242,0.0,2.0,87,0.00,,,0.04,weatherlink.com 1.10,2014-02-26 01:10:00,
2014-02-25 19:25:00,52.5,49.0,30.00,West,277,0.0,3.0,87,0.00,,,0.04,weatherlink.com 1.10,2014-02-26 01:25:00,
2014-02-25 19:40:00,52.5,49.0,29.99,NNE,25,0.0,7.0,87,0.00,,,0.04,weatherlink.com 1.10,2014-02-26 01:40:00,
2014-02-25 19:55:00,52.6,49.0,29.99,NNE,23,0.0,0.0,87,0.00,,,0.04,weatherlink.com 1.10,2014-02-26 01:55:00,
2014-02-25 20:10:00,52.4,49.0,29.99,NW,306,0.0,3.0,87,0.00,,,0.04,weatherlink.com 1.10,2014-02-26 02:10:00,
2014-02-25 20:25:00,52.2,49.0,29.99,SW,229,2.0,2.0,87,0.00,,,0.04,weatherlink.com 1.10,2014-02-26 02:25:00,
2014-02-25 20:40:00,52.1,48.0,30.00,NW,306,0.0,4.0,87,0.00,,,0.04,weatherlink.com 1.10,2014-02-26 02:40:00,
2014-02-25 20:55:00,52.1,48.0,29.99,NNW,327,2.0,3.0,87,0.01,,,0.05,weatherlink.com 1.10,2014-02-26 02:55:00,
2014-02-25 21:10:00,52.1,48.0,29.99,WNW,300,0.0,2.0,87,0.01,,,0.05,weatherlink.com 1.10,2014-02-26 03:10:00,
2014-02-25 21:25:00,52.2,49.0,29.99,SSW,208,0.0,3.0,87,0.01,,,0.05,weatherlink.com 1.10,2014-02-26 03:25:00,
2014-02-25 21:40:00,52.1,48.0,30.00,SW,214,0.0,1.0,87,0.01,,,0.05,weatherlink.com 1.10,2014-02-26 03:40:00,
2014-02-25 21:55:00,52.1,48.0,30.01,SW,214,0.0,2.0,86,0.00,,,0.05,weatherlink.com 1.10,2014-02-26 03:55:00,
2014-02-25 22:10:00,52.0,48.0,30.01,NNE,13,0.0,4.0,86,0.00,,,0.05,weatherlink.com 1.10,2014-02-26 04:10:00,
2014-02-25 22:25:00,51.8,48.0,30.02,WNW,296,0.0,4.0,86,0.00,,,0.05,weatherlink.com 1.10,2014-02-26 04:25:00,
2014-02-25 22:40:00,51.5,48.0,30.02,WNW,295,0.0,5.0,86,0.00,,,0.05,weatherlink.com 1.10,2014-02-26 04:40:00,
2014-02-25 22:55:00,51.4,47.0,30.03,NNW,340,3.0,11.0,86,0.01,,,0.06,weatherlink.com 1.10,2014-02-26 04:55:00,
2014-02-25 23:10:00,50.7,47.0,30.02,NW,306,1.0,5.0,86,0.01,,,0.06,weatherlink.com 1.10,2014-02-26 05:10:00,
2014-02-25 23:25:00,50.4,46.0,29.99,WNW,300,0.0,8.0,86,0.02,,,0.07,weatherlink.com 1.10,2014-02-26 05:25:00,
2014-02-25 23:40:00,50.3,46.0,29.98,SE,135,0.0,6.0,86,0.02,,,0.07,weatherlink.com 1.10,2014-02-26 05:40:00,
2014-02-25 23:55:00,50.4,46.0,29.98,East,88,0.0,3.0,86,0.01,,,0.07,weatherlink.com 1.10,2014-02-26 05:55:00,